Other Public Products
Issued by NWS Grand Forks, ND

Current Version | Previous Version | Text Only | Print | Product List | Glossary On
Versions: 1 2 3 4 5 6 7 8 9 10 11 12 13 14 15 16 17 18 19 20 21 22 23 24 25 26 27 28 29 30 31 32 33 34 35 36 37 38 39 40 41 42 43 44 45 46 47 48 49 50
000
FPUS83 KFGF 270410
OPUFGF
PRAIRIE TO PINES WEATHER ROUNDUP
NATIONAL WEATHER SERVICE EASTERN NORTH DAKOTA/GRAND FORKS ND
1100 PM CDT MON SEP 26 2016

 **SATELLITE DATA USED TO AUGMENT SKY COVER AT AUTOMATED STATIONS**
 *****  WEATHER ACROSS EASTERN NORTH DAKOTA  *****

CITY           SKY/WX    TMP DP  RH WIND       PRES   REMARKS
GRAND FORKS    CLEAR     44  38  79 W9        29.94S
GRAND FORKS AF CLEAR     44  37  74 NW6       29.95R
GRAND CITY NWS NOT AVBL
BUXTON         NOT AVBL
DEVILS LAKE    CLEAR     48  37  65 NW12      30.00S
FARGO          CLEAR     48  33  56 W8        29.94S
WAHPETON ARPT  CLEAR     48  34  57 W13       29.95F
$$

 *****  WEATHER ACROSS CENTRAL AND WESTERN NORTH DAKOTA  *****

CITY           SKY/WX    TMP DP  RH WIND       PRES   REMARKS
JAMESTOWN      CLEAR     46  38  73 NW9       30.01R
BISMARCK       CLEAR     49  39  68 NW5       30.07F
MINOT          CLEAR     48  39  71 W7        30.04F
MINOT AFB      CLEAR     44  38  78 W9        30.03F
GARRISON         N/A     47  38  71 W7        30.06F
WILLISTON      CLEAR     46  40  79 N3        30.08S
DICKINSON      CLOUDY    43  37  79 SW5       30.10S
HETTINGER      CLOUDY    44  39  82 NW3       30.14F
$$

 *****  OTHER OBSERVATIONS NORTHEAST NORTH DAKOTA  *****

CITY           SKY/WX    TMP DP  RH WIND       PRES   REMARKS
WALHALLA       FAIR      46  45  93 NW6       29.96S
LANGDON        FAIR      41  36  81 NW9       29.97F
CAVALIER       FAIR      46  43  87 W7        29.94S
GRAFTON        FAIR      50  46  87 W9        29.95F
CANDO          FAIR      43  36  75 W9        30.02S
FORT TOTTEN      N/A     54  38  54 NW7       29.95S
ROLLA          FAIR      48  32  53 NW12      30.02S
RUGBY          FAIR      39  36  87 W7        30.02S
 ***** THE ABOVE OBSERVATIONS ARE NON NWS ARE NOT QUALITY
        CONTROLLED AND MAY MIS-REPORT RAIN FOR SNOW...
$$

 *****  OTHER OBSERVATIONS SOUTHEAST NORTH DAKOTA *****

CITY           SKY/WX    TMP DP  RH WIND       PRES   REMARKS
COOPERSTOWN    FAIR      43  37  81 W10       29.99R
VALLEY CITY    FAIR      48  37  66 NW13      30.00F
OAKES          NOT AVBL
GWINNER        FAIR      45  36  70 W8        30.00S
SHEYENNE NWR     N/A     46  34  62 W6        29.95S
BUFFALO        NOT AVBL
WYNDMERE       NOT AVBL
 ***** THE ABOVE OBSERVATIONS ARE NON NWS ARE NOT QUALITY
       CONTROLLED AND MAY MIS-REPORT RAIN FOR SNOW...
$$

  *****  WEATHER ACROSS NORTHERN MINNESOTA  *****

CITY           SKY/WX    TMP DP  RH WIND       PRES   REMARKS
FLAG ISLAND    CLOUDY    52  46  82 NW22G32   29.77S
WARROAD        CLOUDY    52  45  76 NW15G24   29.83S
ROSEAU         PTCLDY    52  45  76 NW15      29.84F
HALLOCK        CLEAR     46  45  93 NW7       29.91S
THF RVR FALLS  CLEAR     48  42  80 NW10      29.91S
HALSTAD          N/A     43  36  75 NW6         N/A
FOSSTON        CLEAR     45  39  81 W7        29.90F
BAUDETTE       CLOUDY    50  45  83 NW21G29   29.78F
WASKISH        CLOUDY    52  45  76 NW15G30   29.81S
CROOKSTON      CLEAR     43  41  93 NW6       29.94R
$$
  *****  WEATHER ACROSS CENTRAL AND WEST MINNESOTA  *****

CITY           SKY/WX    TMP DP  RH WIND       PRES   REMARKS
BEMIDJI        CLOUDY    49  40  71 NW15G21   29.85F
PARK RAPIDS    CLEAR     50  40  68 NW13      29.88F
WADENA         NOT AVBL
DETROIT LAKES  CLEAR     46  39  76 NW8       29.93S
MOORHEAD       CLEAR     54  30  40 NW14      29.95S
FERGUS FALLS   CLEAR     45  34  65 NW8       29.96S
ELBOW LAKE     FAIR      46  35  63 NW7       29.94F
MORRIS MN      CLEAR     50  36  57 W10       29.94F
STAPLES        CLEAR     46  39  76 W9        29.89R
WHEATON        NOT AVBL
$$
  *****  WEATHER ELSEWHERE ACROSS MINNESOTA  *****

CITY           SKY/WX    TMP DP  RH WIND       PRES   REMARKS
DULUTH         CLOUDY    52  44  74 NW18G29   29.70F
INTRNTL FALLS  LGT RAIN  49  47  93 W12G24    29.70F
ELY            LGT RAIN  48  46  93 W14G24    29.62F
CLOQUET        CLOUDY    54  41  62 W12G24    29.73F
BRAINERD       CLEAR     53  41  63 NW14G23   29.86F
HIBBING        CLOUDY    48  44  86 NW14G21   29.73S
ALEXANDRIA     CLEAR     51  33  50 W13       29.93S
SAINT CLOUD    CLEAR     52  39  61 W13       29.87F
MINNEAPOLIS    CLEAR     57  36  45 W12       29.87S
$$

  *****  WEATHER ACROSS SOUTH DAKOTA  *****

CITY           SKY/WX    TMP DP  RH WIND       PRES   REMARKS
SIOUX FALLS    CLEAR     52  36  54 W7        30.04S
BROOKINGS      CLEAR     47  36  65 NW9       30.02F
WATERTOWN      CLEAR     54  37  52 NW9       30.02S
HURON          CLEAR     49  34  56 W9        30.05F
SISSETON         N/A     55  35  47 NW10      29.97S
ABERDEEN       CLEAR     53  36  52 NW10      30.03F
MITCHELL       CLEAR     53  38  56 W7        30.07S
PIERRE         CLEAR     49  38  65 NW9       30.09F
MOBRIDGE       CLEAR     46  37  71 CALM      30.07F
RAPID CITY     CLEAR     47  40  76 NW6       30.19F
$$

  *****  SOME WEATHER IN NEARBY STATES *****

CITY           SKY/WX    TMP DP  RH WIND       PRES   REMARKS
GLASGOW MT     CLEAR     51  44  77 S8        30.06F
GREAT FALLS MT CLEAR     59  40  49 S9        30.09F
CHEYENNE WY    CLEAR     51  40  65 W5        30.37F
SCOTTSBLUFF NE CLEAR     55  43  63 SW3       30.26S
OMAHA NE       CLEAR     58  49  72 CALM      30.07F
DES MOINES IA  CLEAR     57  45  64 W5        30.02S
DAVENPORT IA   CLEAR     57  40  52 W9        29.97S
CHICAGO IL     CLEAR     57  35  43 SW7       29.92F
EAU CLAIRE WI  CLEAR     50  39  66 W9        29.80F
LA CROSSE WI   CLEAR     61  36  39 W15       29.84F
$$

  *****  SOME NATIONAL WEATHER *****

CITY           SKY/WX    TMP DP  RH WIND       PRES   REMARKS
LA GUARDIA NY  CLOUDY    70  60  70 S12       29.98F
RALEIGH NC     LGT RAIN  72  68  87 S8        30.04F
ATLANTA GA     MOCLDY    76  66  71 CALM      30.03S
NEW ORLEANS LA MOCLDY    82  73  74 W8        29.99S
OKLAHOMA CITY  CLOUDY    59  49  69 CALM      30.20S
ALBUQUERQUE NM PTCLDY    62  32  32 E14       30.33S
SALT LAKE CITY CLEAR     61  50  67 CALM      30.26S
LOS ANGELES CA PTCLDY    80  50  34 SW5       29.88R
BOISE ID       CLEAR     69  41  36 SE8       30.13F
SEATTLE WA     PTCLDY    67  55  65 N8        30.06R
$$

*** WEATHER ACROSS MANITOBA...SASKATCHEWAN AND ONTARIO ***
                ***ONTARIO***

CITY           SKY/WX    TMP DP  RH WIND       PRES   REMARKS
GERALDTON      FOG       48  48 100 NW2       29.34S VSB 1
THUNDER BAY    CLOUDY    52  46  82 W12G17    29.44F
SIOUX LOOKOUT  DRIZZLE   46  45  93 NW15G23   29.56S
TORONTO        PTCLDY    55  48  76 SW10      29.85S
BIG TROUT LK   LGT RAIN  46  45  93 N13G25    29.51S FOG
PICKLE LAKE    NOT AVBL
DRYDEN         LGT RAIN  46  45  93 NW15G26   29.62S
KENORA         NOT AVBL
$$
                *** MANITOBA***

CITY           SKY/WX    TMP DP  RH WIND       PRES   REMARKS
BRANDON        CLEAR     41  34  75 NW9       30.01R
DAUPHIN        CLEAR     41  34  75 W8        29.99S
ISLAND LAKE    LGT RAIN  46  46 100 N15G28    29.78R
PILOT MOUND      N/A     45  34  65 NW8         N/A
THE PAS        CLEAR     50  43  76 N7        30.00F
THOMPSON       CLOUDY    46  39  76 N7        29.93F
WINNIPEG       MOCLDY    50  43  76 NW16      29.90F
LYNN LAKE      CLEAR     37  37 100 W7        30.01R
CHURCHILL      LGT RAIN  45  43  93 N26G35    29.86S
GILLAM         CLOUDY    45  41  87 N22G29    29.84R
$$
                ***SASKATCHEWAN***

CITY           SKY/WX    TMP DP  RH WIND       PRES   REMARKS
ESTEVAN        CLEAR     45  39  81 N3        30.06S
KINDERSLEY     CLEAR     55  41  58 SE12      29.93F
LLOYDMINSTER   CLEAR     55  43  62 S12       29.89F
PRINCE ALBERT  CLEAR     41  36  81 VRB2      29.98F
REGINA         CLEAR     45  39  81 SE7       30.05F
YORKTON        CLEAR     45  37  76 W9        30.03S  C1F1C2F2C3F3C4F4C5F5C6F6C7F7C8F8C9F9CaFaCbFbCcFcCdFdCe!


USA.gov is the U.S. government's official web portal to all federal, state and local government web resources and services.